Terminal Aerodrome Forecast
Issued by NWS Sterling, VA

Current Version | Previous Version | Graphics & Text | Print | Product List | Glossary On
Versions: 1 2 3 4 5 6 7 8 9 10 11 12 13 14 15 16 17 18 19 20 21 22
000
FTUS41 KLWX 222000 AAB
TAFMRB
TAF AMD
KMRB 222038Z 2221/2318 02004KT 1 1/2SM -FZRA BR BKN006 BKN010
      OVC021
     FM230000 00000KT 5SM -FZRA BR OVC015
     FM230100 00000KT 3SM -FZRA BR OVC015
     FM230500 VRB03KT 3SM BR OVC015
     FM230900 VRB03KT 3SM BR OVC003
     FM231100 00000KT 3SM -DZ BR OVC003
     FM231500 00000KT 3SM -DZ BR OVC008=

USA.gov is the U.S. government's official web portal to all federal, state and local government web resources and services.